This demonstration page uses our WeatherBlox Daily Observations layout. Learn more.

Left ArrowRight Arrow

39.29038, -76.61219

Hourly Observations for October 22, 2016

Temp ( °F °C ) Dew Point ( °F °C ) Humidity (%) Winds ( mph kmh ) Pressure ( in mb ) Visibility ( mi km ) Precip ( " mm )
12:54 am 00:54 undefined 58 14.4 45 7.2 62 62 undefined N/A 29.58 1002 N/A 0.00 0.00
1:54 am 01:54 undefined 58 14.4 44 6.7 60 60 undefined N/A 29.56 1001 N/A 0.00 0.00
2:54 am 02:54 undefined 58 14.4 42 5.6 56 56 undefined N/A 29.56 1001 N/A 0.00 0.00
3:54 am 03:54 undefined 57 13.9 40 4.4 53 53 undefined N/A 29.56 1001 N/A 0.00 0.00
4:54 am 04:54 undefined 56 13.3 40 4.4 55 55 undefined N/A 29.57 1001 N/A 0.00 0.00
5:54 am 05:54 undefined 56 13.3 40 4.4 55 55 undefined N/A 29.58 1002 N/A 0.00 0.00
6:54 am 06:54 undefined 55 12.8 39 3.9 55 55 undefined N/A 29.60 1003 N/A 0.00 0.00
7:54 am 07:54 undefined 54 12.2 39 3.9 57 57 undefined N/A 29.61 1003 N/A 0.00 0.00
8:54 am 08:54 undefined 54 12.2 39 3.9 57 57 undefined N/A 29.64 1004 N/A 0.00 0.00
9:54 am 09:54 undefined 54 12.2 38 3.3 55 55 undefined N/A 29.66 1004 N/A 0.00 0.00
10:54 am 10:54 undefined 54 12.2 36 2.2 51 51 undefined N/A 29.68 1005 N/A 0.00 0.00
11:54 am 11:54 undefined 55 12.8 34 1.1 45 45 undefined N/A 29.71 1006 N/A 0.00 0.00
12:54 pm 12:54 undefined 56 13.3 30 -1.1 37 37 undefined N/A 29.70 1006 N/A 0.00 0.00
1:54 pm 13:54 undefined 56 13.3 30 -1.1 37 37 undefined N/A 29.70 1006 N/A 0.00 0.00
2:54 pm 14:54 undefined 57 13.9 29 -1.7 34 34 undefined N/A 29.69 1006 N/A 0.00 0.00
3:54 pm 15:54 undefined 59 15 31 -0.6 35 35 undefined N/A 29.70 1006 N/A 0.00 0.00
4:54 pm 16:54 undefined 57 13.9 30 -1.1 36 36 undefined N/A 29.73 1007 N/A 0.00 0.00
5:54 pm 17:54 undefined 56 13.3 32 0 40 40 undefined N/A 29.75 1008 N/A 0.00 0.00
6:54 pm 18:54 undefined 54 12.2 32 0 43 43 undefined N/A 29.78 1009 N/A 0.00 0.00
7:54 pm 19:54 undefined 53 11.7 33 0.6 47 47 undefined N/A 29.81 1010 N/A 0.00 0.00
8:54 pm 20:54 undefined 51 10.6 34 1.1 52 52 undefined N/A 29.83 1010 N/A 0.00 0.00
9:54 pm 21:54 undefined 51 10.6 33 0.6 50 50 undefined N/A 29.86 1011 N/A 0.00 0.00
10:54 pm 22:54 undefined 50 10 32 0 50 50 undefined N/A 29.86 1011 N/A 0.00 0.00
11:54 pm 23:54 undefined 50 10 30 -1.1 46 46 undefined N/A 29.87 1012 N/A 0.00 0.00

Powered by AerisWeather